TimePDT,TemperatureF,Dew PointF,Humidity,Sea Level PressureIn,VisibilityMPH,Wind Direction,Wind SpeedMPH,Gust SpeedMPH,PrecipitationIn,Events,Conditions,WindDirDegrees,DateUTC
12:56 AM,100.0,59.0,26,29.63,10.0,SW,11.5,-,N/A,,Partly Cloudy,220,2013-07-25 07:56:00
1:56 AM,100.0,57.9,25,29.65,10.0,Variable,4.6,16.1,N/A,,Partly Cloudy,0,2013-07-25 08:56:00
2:56 AM,97.0,57.9,27,29.65,10.0,WSW,4.6,-,N/A,,Clear,240,2013-07-25 09:56:00
3:56 AM,97.0,59.0,28,29.65,10.0,WSW,6.9,-,N/A,,Clear,240,2013-07-25 10:56:00
4:56 AM,93.9,60.1,32,29.67,10.0,WSW,6.9,-,N/A,,Clear,250,2013-07-25 11:56:00
5:56 AM,95.0,62.1,33,29.69,10.0,SW,8.1,-,N/A,,Clear,220,2013-07-25 12:56:00
6:56 AM,95.0,62.1,33,29.71,10.0,SW,5.8,-,N/A,,Clear,230,2013-07-25 13:56:00
7:56 AM,97.0,62.1,31,29.73,10.0,East,4.6,-,N/A,,Clear,100,2013-07-25 14:56:00
8:56 AM,100.0,61.0,28,29.75,10.0,SSE,9.2,-,N/A,,Clear,150,2013-07-25 15:56:00
9:56 AM,102.0,60.1,25,29.75,10.0,SSE,11.5,-,N/A,,Clear,160,2013-07-25 16:56:00
10:56 AM,105.1,57.0,20,29.75,10.0,South,11.5,18.4,N/A,,Clear,190,2013-07-25 17:56:00
11:56 AM,106.0,53.1,17,29.75,10.0,South,13.8,21.9,N/A,,Clear,190,2013-07-25 18:56:00
12:56 PM,108.0,54.0,17,29.74,10.0,South,16.1,24.2,N/A,,Partly Cloudy,190,2013-07-25 19:56:00
1:56 PM,109.0,54.0,16,29.71,10.0,SSW,11.5,24.2,N/A,,Scattered Clouds,200,2013-07-25 20:56:00
2:56 PM,109.9,53.1,15,29.69,10.0,SSW,15.0,23.0,N/A,,Partly Cloudy,200,2013-07-25 21:56:00
3:56 PM,111.0,55.9,16,29.68,10.0,South,15.0,24.2,N/A,,Clear,190,2013-07-25 22:56:00
4:56 PM,106.0,59.0,21,29.69,10.0,SSW,21.9,26.5,N/A,,Clear,200,2013-07-25 23:56:00
5:56 PM,105.1,60.1,23,29.69,10.0,SSW,23.0,27.6,N/A,,Partly Cloudy,210,2013-07-26 00:56:00
6:56 PM,102.9,57.0,22,29.72,10.0,SSW,19.6,25.3,N/A,,Clear,200,2013-07-26 01:56:00
7:56 PM,102.0,59.0,24,29.73,10.0,SSW,17.3,-,N/A,,Clear,210,2013-07-26 02:56:00
8:56 PM,100.0,60.1,27,29.77,10.0,SSW,13.8,-,N/A,,Partly Cloudy,200,2013-07-26 03:56:00
9:56 PM,99.0,61.0,28,29.77,10.0,SW,12.7,-,N/A,,Clear,220,2013-07-26 04:56:00
10:56 PM,97.0,61.0,30,29.77,10.0,SW,9.2,-,N/A,,Clear,220,2013-07-26 05:56:00
11:56 PM,96.1,61.0,31,29.78,10.0,SSE,6.9,-,N/A,,Clear,150,2013-07-26 06:56:00